Location: Burgberg
(50.1428°N, 11.0671°E)
Time: 09:22:30
(UTC+00:00)

COSMO-SKYMED 1 - Pass Details

Date: 26 January 2020
Orbit: 621 x 623 km, 97.9° (Epoch: 27 February)

Event Time Altitude Azimuth Distance (km) Brightness Sun altitude
Rises 03:47:35 0° 148° (SSE) 2,896 6.3 -30.4°
Reaches altitude 10° 03:49:49 10° 143° (SE) 1,994 5.5 -30.0°
Enters shadow 03:53:12 42° 102° (ESE) 894 3.7 -29.5°
